sat.trackr.live / text

‹ back to catalog

STARLINK-35749

NORAD 66879 · 2025-283B

PAYLOAD ACTIVE UNKNOWN

§ Identity

Operator
Country
US
Launch date
2025-12-04
Launch site
AFWTR
Launch vehicle
Mass (kg)
RCS (m²)

Purposes: comms

External: N2YO · Heavens-Above · Gunter

§ Orbital elements

Epoch: 2026-05-24T22:52:10.249824Z

Period
94.10 min
Inclination
53.1601°
Eccentricity
0.0001017
Mean motion
15.30213698 rev/d
Perigee alt
474.5 km
Apogee alt
475.9 km
Semi-major
6,853.3 km
B*
6.8384e-4
RAAN
29.7022°
Arg perigee
80.3749°
Mean anomaly
279.7366°
Rev number
2,752

§ Raw data

STARLINK-357491 66879U 25283B   26144.95289641  .00019957  00000+0  68384-3 0  99992 66879  53.1601  29.7022 0001017  80.3749 279.7366 15.30213698 27520

JSON: /api/v1/satellites/66879 · /tle

For live sub-satellite position, see the globe view (requires WebGL).

§ Visibility from observer

Set your observer location to see the next 7 days of passes ≥ 10°. The values pass through the URL so the page stays shareable.

No JS? Fill the form by hand. The geolocation button needs JavaScript.